Volver al catálogo

HAWK-7A

ActivoMilitarSSO
NORAD 56191·PAYLOAD·🇺🇸 United States

Lanzado Apr 15, 2023 desde Vandenberg Space Force Base

Loading…

Próximos Pases (próximas 24 horas)

TLE

ActualizadoSource: Space-Track

Época: Sep 14, 2026, 02:53 UTC

1 56191U 23054P   26257.12075253  .00004876  00000-0  18020-3 0  9992
2 56191  97.2548 142.1783 0004746  83.9687 276.2093 15.28165513190609

Sigue HAWK-7A en tiempo real con AllMySat

Download on the App Store